Date String (YYYY-MM-DD hh:mm:ss) UTC,Instrument flags,absolute air pressure of the measurement (hPa),sample flow rate (lpm),inlet stack bypass flow (lpm),air temperature of the measurement (°C),ambient temperature measured by the external sensor (°C),aerosol sample conditioner tube jacket temperature (°C),OPC LED temperature (°C),internal box temperature (°C),relative humidity of the measurement (%),span deviation,mass concentration of particles derived from Lorenz-Mie calculation of OPC scattering (μg/m³),mass concentration of particles derived from Lorenz-Mie calculation of OPC scattering (μg/m³),mass concentration of particles derived from Lorenz-Mie calculation of OPC scattering (μg/m³)
DateTimeUTC,F1_M11,P_M11,Q1_M11,Q2_M11,T1_M11,T2_M11,T3_M11,T4_M11,T5_M11,U1_M11,ZSPAN_M11,X2_M11,X0_M11,X1_M11
2023-07-03 17:00:00,SystemResetWarning,0832.1,4.99,000.00,028.7,027.2,000.0,037.2,030.4,26.9,0000.0,0004.99,0011.99,0004.37
2023-07-03 17:01:00,SystemResetWarning,0832.1,5.00,000.00,028.8,027.4,000.0,037.2,030.5,26.3,0000.0,0005.01,0011.65,0004.34
2023-07-03 17:02:00,SystemResetWarning,0832.1,5.01,000.00,028.8,027.6,000.0,037.2,030.6,23.4,0000.0,0005.00,0011.22,0004.32
2023-07-03 17:03:00,SystemResetWarning,0832.1,4.99,000.00,028.9,026.7,000.0,037.1,030.5,22.8,0000.0,0004.95,0010.93,0004.29
2023-07-03 17:04:00,SystemResetWarning,0832.0,5.00,000.00,028.8,025.1,000.0,037.0,030.3,25.0,0000.0,0004.93,0011.50,0004.26
2023-07-03 17:05:00,SystemResetWarning,0832.0,5.02,000.00,028.7,025.0,000.0,036.9,030.2,27.8,0000.0,0004.87,0011.48,0004.23
2023-07-03 17:06:00,SystemResetWarning,0832.0,4.99,000.00,028.7,025.3,000.0,037.0,030.0,26.8,0000.0,0004.79,0011.45,0004.19
2023-07-03 17:07:00,SystemResetWarning,0832.1,5.00,000.00,028.6,025.7,000.0,037.0,030.1,25.8,0000.0,0004.77,0011.34,0004.17
2023-07-03 17:08:00,SystemResetWarning,0832.0,5.00,000.00,028.6,026.1,000.0,037.1,030.2,24.0,0000.0,0004.75,0011.33,0004.15
2023-07-03 17:09:00,SystemResetWarning,0832.0,5.00,000.00,028.7,026.5,000.0,037.1,030.2,23.4,0000.0,0004.71,0011.43,0004.13
2023-07-03 17:10:00,SystemResetWarning,0832.0,5.00,000.00,028.7,026.9,000.0,037.1,030.3,22.9,0000.0,0004.64,0011.86,0004.09
2023-07-03 17:11:00,SystemResetWarning,0832.0,4.99,000.00,028.7,027.1,000.0,037.1,030.4,23.3,0000.0,0004.58,0011.65,0004.07
2023-07-03 17:12:00,SystemResetWarning,0832.0,4.99,000.00,028.8,027.4,000.0,037.2,030.5,23.0,0000.0,0004.49,0012.18,0004.04
2023-07-03 17:13:00,SystemResetWarning,0832.0,5.00,000.00,028.8,026.7,000.0,037.1,030.4,22.0,0000.0,0004.45,0011.62,0004.02
2023-07-03 17:14:00,SystemResetWarning,0832.0,5.00,000.00,028.7,025.2,000.0,037.0,030.1,22.8,0000.0,0004.43,0011.35,0004.01
2023-07-03 17:15:00,SystemResetWarning,0832.0,5.01,000.00,028.7,024.8,000.0,036.9,030.0,20.9,0000.0,0004.39,0010.03,0004.01
2023-07-03 17:16:00,SystemResetWarning,0832.0,5.01,000.00,028.6,025.2,000.0,036.9,029.9,21.9,0000.0,0004.38,0009.68,0004.00
2023-07-03 17:17:00,SystemResetWarning,0832.0,4.99,000.00,028.6,025.6,000.0,037.0,030.0,21.7,0000.0,0004.36,0009.35,0003.98
2023-07-03 17:18:00,SystemResetWarning,0832.0,4.99,000.00,028.6,026.0,000.0,037.0,030.1,20.9,0000.0,0004.32,0009.26,0003.95
2023-07-03 17:19:00,SystemResetWarning,0832.0,5.00,000.00,028.6,026.4,000.0,037.0,030.2,21.9,0000.0,0004.27,0009.17,0003.90
2023-07-03 17:20:00,SystemResetWarning,0832.0,5.00,000.00,028.6,026.8,000.0,037.0,030.2,21.5,0000.0,0004.20,0008.83,0003.85
2023-07-03 17:21:00,SystemResetWarning,0832.0,5.01,000.00,028.6,027.1,000.0,037.0,030.3,20.7,0000.0,0004.17,0007.94,0003.82
2023-07-03 17:22:00,SystemResetWarning,0832.0,4.99,000.00,028.7,027.3,000.0,037.1,030.4,19.0,0000.0,0004.15,0008.27,0003.79
2023-07-03 17:23:00,SystemResetWarning,0832.0,4.99,000.00,028.7,027.4,000.0,037.1,030.5,19.1,0000.0,0004.15,0007.96,0003.76
2023-07-03 17:24:00,SystemResetWarning,0832.0,5.00,000.00,028.8,026.1,000.0,037.0,030.3,20.1,0000.0,0004.13,0008.66,0003.74
2023-07-03 17:25:00,SystemResetWarning,0831.9,5.00,000.00,028.7,024.9,000.0,036.9,030.1,21.1,0000.0,0004.13,0009.40,0003.71
2023-07-03 17:26:00,SystemResetWarning,0831.9,5.01,000.00,028.6,025.0,000.0,036.9,030.0,21.4,0000.0,0004.08,0009.56,0003.68
2023-07-03 17:27:00,SystemResetWarning,0832.0,5.01,000.00,028.6,025.4,000.0,036.9,029.9,22.7,0000.0,0004.07,0009.49,0003.67
2023-07-03 17:28:00,SystemResetWarning,0832.0,5.00,000.00,028.5,025.8,000.0,036.9,030.0,22.1,0000.0,0004.10,0009.55,0003.68
2023-07-03 17:29:00,SystemResetWarning,0831.9,5.00,000.00,028.6,026.2,000.0,037.0,030.1,21.8,0000.0,0004.10,0009.54,0003.69
2023-07-03 17:30:00,SystemResetWarning,0831.9,5.00,000.00,028.6,026.6,000.0,037.0,030.2,22.2,0000.0,0004.08,0009.45,0003.70
2023-07-03 17:31:00,SystemResetWarning,0831.9,5.00,000.00,028.6,026.9,000.0,037.0,030.3,20.6,0000.0,0004.07,0009.42,0003.71
2023-07-03 17:32:00,SystemResetWarning,0832.0,5.00,000.00,028.7,027.2,000.0,037.0,030.4,20.8,0000.0,0004.08,0009.41,0003.72
2023-07-03 17:33:00,SystemResetWarning,0832.0,5.00,000.00,028.7,027.4,000.0,037.0,030.4,22.3,0000.0,0004.07,0009.01,0003.73
2023-07-03 17:34:00,SystemResetWarning,0832.0,4.99,000.00,028.7,026.3,000.0,037.0,030.3,21.0,0000.0,0004.03,0008.83,0003.73
2023-07-03 17:35:00,SystemResetWarning,0831.9,5.00,000.00,028.7,024.9,000.0,036.9,030.1,22.3,0000.0,0004.03,0007.85,0003.74
2023-07-03 17:36:00,SystemResetWarning,0831.9,5.02,000.00,028.6,024.9,000.0,036.8,030.0,20.7,0000.0,0004.02,0007.25,0003.75
2023-07-03 17:37:00,SystemResetWarning,0831.8,4.99,000.00,028.5,025.3,000.0,036.8,029.9,20.7,0000.0,0004.03,0007.77,0003.77
2023-07-03 17:38:00,SystemResetWarning,0831.8,4.99,000.00,028.5,025.7,000.0,036.9,030.0,21.1,0000.0,0004.06,0007.84,0003.77
2023-07-03 17:39:00,SystemResetWarning,0831.8,5.02,000.00,028.5,026.1,000.0,036.9,030.1,22.0,0000.0,0004.04,0007.84,0003.76
2023-07-03 17:40:00,SystemResetWarning,0831.8,5.00,000.00,028.5,026.5,000.0,037.0,030.2,21.3,0000.0,0004.00,0007.73,0003.75
2023-07-03 17:41:00,SystemResetWarning,0831.9,4.99,000.00,028.6,026.9,000.0,037.0,030.2,21.5,0000.0,0004.01,0007.80,0003.74
2023-07-03 17:42:00,SystemResetWarning,0831.8,5.00,000.00,028.6,027.1,000.0,037.0,030.3,20.7,0000.0,0004.04,0008.12,0003.73
2023-07-03 17:43:00,SystemResetWarning,0831.8,5.00,000.00,028.7,027.4,000.0,037.0,030.4,21.5,0000.0,0004.03,0008.64,0003.71
2023-07-03 17:44:00,SystemResetWarning,0831.8,5.00,000.00,028.7,026.5,000.0,037.0,030.3,21.6,0000.0,0004.00,0009.20,0003.70
2023-07-03 17:45:00,SystemResetWarning,0831.8,5.01,000.00,028.6,025.0,000.0,036.9,030.1,21.7,0000.0,0003.99,0009.75,0003.69
2023-07-03 17:46:00,SystemResetWarning,0832.0,5.01,000.00,028.6,024.9,000.0,036.8,030.0,19.0,0000.0,0004.02,0010.15,0003.68
2023-07-03 17:47:00,SystemResetWarning,0832.1,5.01,000.00,028.5,025.2,000.0,036.8,029.9,18.9,0000.0,0004.01,0010.30,0003.68
2023-07-03 17:48:00,SystemResetWarning,0832.3,5.00,000.00,028.5,025.6,000.0,036.9,030.0,20.1,0000.0,0003.98,0010.19,0003.66
2023-07-03 17:49:00,SystemResetWarning,0832.2,5.00,000.00,028.5,026.0,000.0,036.9,030.0,21.3,0000.0,0003.95,0009.64,0003.64
2023-07-03 17:50:00,SystemResetWarning,0832.2,5.01,000.00,028.5,026.4,000.0,036.9,030.1,22.7,0000.0,0003.92,0009.58,0003.62
2023-07-03 17:51:00,SystemResetWarning,0832.2,5.00,000.00,028.6,026.8,000.0,037.0,030.2,21.8,0000.0,0003.93,0009.66,0003.61
2023-07-03 17:52:00,SystemResetWarning,0832.2,5.00,000.00,028.6,027.1,000.0,037.0,030.3,20.6,0000.0,0003.89,0009.52,0003.60
2023-07-03 17:53:00,SystemResetWarning,0831.9,5.00,000.00,028.6,027.3,000.0,037.0,030.4,21.1,0000.0,0003.85,0010.39,0003.60
2023-07-03 17:54:00,SystemResetWarning,0832.2,5.00,000.00,028.7,027.4,000.0,037.0,030.5,21.0,0000.0,0003.88,0010.46,0003.61
2023-07-03 17:55:00,SystemResetWarning,0832.2,4.99,000.00,028.7,026.1,000.0,036.9,030.3,20.2,0000.0,0003.94,0011.58,0003.62
2023-07-03 17:56:00,SystemResetWarning,0831.9,5.01,000.00,028.6,024.8,000.0,036.8,030.1,19.9,0000.0,0003.94,0011.66,0003.62
2023-07-03 17:57:00,SystemResetWarning,0832.0,5.02,000.00,028.6,025.1,000.0,036.8,030.0,19.4,0000.0,0003.92,0011.57,0003.61
2023-07-03 17:58:00,SystemResetWarning,0831.9,4.99,000.00,028.5,025.4,000.0,036.8,030.0,20.1,0000.0,0003.94,0012.31,0003.62
2023-07-03 17:59:00,SystemResetWarning,0832.0,5.00,000.00,028.5,025.8,000.0,036.9,030.0,20.5,0000.0,0003.98,0012.07,0003.62
